Location: Melque
(41.0517°N, 4.4694°W)
Time: 10:03:55
(UTC+00:00)

Meteor 2-20 - Pass Details

Date: 16 March 2026
Orbit: 938 x 958 km, 82.5° (Epoch: 20 April)

Event Time Altitude Azimuth Distance (km) Brightness Sun altitude
Rises 19:33:09 0° 336° (NNW) 3,647 8.0 -13.5°
Reaches altitude 10° 19:36:20 10° 321° (NW) 2,695 7.6 -14.1°
Maximum altitude 19:40:34 20° 277° (W) 2,067 7.3 -14.9°
Drops below altitude 10° 19:44:47 10° 233° (SW) 2,676 7.4 -15.7°
Sets 19:47:57 0° 217° (SW) 3,614 7.8 -16.2°
